User: anonymous   Login
Location: Caltech
(34.1382°N, 118.1253°W)
Time: 12:10:16
(UTC-07:00)
Language:

GPS 2-04 Rocket1 - Orbit

View from above orbital plane
View from above orbital plane
View from above satellite
View from above satellite

Ground track
Ground track

The orbit data is extracted from the following two-line orbital elements,

1 20303U 89085B   15085.12662306  .00009359  00000-0  39679-3 0  9996
2 20303 035.6329 059.2502 0128067 210.6900 207.2126 15.15210462376590
Epoch (UTC): 26 March 2015 03:02:20
Eccentricity: 0.0128067
inclination: 35.6329°
perigee height: 432 km
apogee height: 608 km
right ascension of ascending node: 59.2502°
argument of perigee: 210.6900°
revolutions per day: 15.15210462
mean anomaly at epoch: 207.2126°
orbit number at epoch: 37659

The dashed part of the orbit path shows where the satellite is in the earth's shadow,  

DLR